[[{"header":{"parameterUnit":"m.s-1","parameterCategory":1,"la1":30.2991,"la2":30.254,"lo1":-89.0895,"lo2":-89.0444,"dy":0.0017,"dx":0.0017,"nx":28,"ny":28,"refTime":"2024-08-04T21:00:00:Z","depth":0,"parameterNumber":2,"parameterNumberName":"U-component_of_WINDS"},"data":[0,0,0,0,0,0,0,0,0,0,0,0,0,0,0,0,0,0,0,0,0,0,0,0,0,0,0,0,0,0,0,0,0,0,0,0,0,0,0,0,0,0,0,0,0,0,0,0,0,0,0,0,0,0,0,0,0,0,0.6649,0.665,0,0.6706,0.6707,0.6708,0.6699,0.6698,0.6697,0.6696,0.6758,0.676,0.6763,0,0,0,0,0,0,0,0,0,0,0,0,0,0.6536,0.6538,0.6649,0.665,0.665,0.6706,0.6707,0.6708,0.6699,0.6698,0.6697,0.6696,0.6757,0.676,0.6763,0,0,0,0,0,0,0,0,0,0,0,0,0,0.6589,0.6539,0.6649,0.6653,0.6654,0.6706,0.6707,0.6708,0.67,0.6698,0.6697,0.6695,0.6756,0.676,0.6764,0.6817,0,0,0.6775,0.6777,0,0,0,0,0,0,0,0,0.6586,0.6593,0.6652,0.6653,0.6654,0.6694,0.669,0.6745,0.67,0.6682,0.6696,0.6695,0.6738,0.6743,0.6757,0.682,0.6822,0.6776,0.6778,0.678,0.6781,0,0,0,0,0,0,0,0.6582,0.659,0.6672,0.6652,0.6654,0.6653,0.6659,0.67,0.6718,0.6684,0.6683,0.669,0.6738,0.6754,0.6759,0.6823,0.6776,0.6779,0.6781,0.6783,0.6935,0.6936,0,0,0,0,0,0,0.6577,0.6587,0.667,0.6674,0.6615,0.6656,0.6663,0.6683,0.6717,0.6721,0.6691,0.6689,0.6748,0.6754,0.6761,0.6827,0.678,0.6783,0.6785,0.6933,0.6935,0.6937,0,0,0,0,0,0,0.6574,0.6584,0.6668,0.663,0.6641,0.666,0.6682,0.6685,0.67,0.6723,0.6726,0.6703,0.6747,0.6756,0.6803,0.6829,0.6785,0.6788,0.6931,0.6934,0.6936,0.6959,0,0,0,0,0,0,0.6571,0.6583,0.6603,0.6631,0.6643,0.6708,0.6684,0.6687,0.6706,0.6704,0.6735,0.6739,0.6746,0.6798,0.6807,0.6833,0.6791,0.6929,0.6932,0.6935,0.6956,0.6962,0.6967,0,0,0,0,0,0.6567,0.6607,0.6604,0.6614,0.6667,0.6709,0.6716,0.6723,0.6708,0.6729,0.6744,0.6738,0.6825,0.6803,0.6813,0.6841,0.6927,0.6931,0.6935,0.6953,0.696,0.6967,0,0,0,0,0,0,0.6582,0.661,0.6607,0.6657,0.6681,0.6708,0.6733,0.673,0.676,0.6757,0.6765,0.6773,0.6821,0.6836,0.6811,0.6896,0.6874,0.688,0.6884,0.6891,0.6897,0.6893,0.6795,0,0,0,0,0,0.659,0.6621,0.6645,0.6687,0.6699,0.6714,0.6733,0.6736,0.6762,0.6772,0.679,0.6816,0.6849,0.6871,0.6903,0.6958,0.6966,0.6982,0.6988,0.6992,0.6998,0.703,0.7039,0.695,0.695,0.695,0,0,0.6609,0.6629,0.6648,0.669,0.6709,0.6742,0.6723,0.6758,0.6783,0.6777,0.6824,0.6839,0.6868,0.692,0.6944,0.6934,0.7024,0.6997,0.7001,0.7004,0.7035,0.7044,0.7051,0.6952,0.6952,0.6951,0,0,0.6661,0.6678,0.6715,0.6735,0.6763,0.6774,0.6783,0.6811,0.682,0.6867,0.6864,0.6895,0.6951,0.6973,0.6991,0.7053,0.705,0.7063,0.7093,0.7124,0.7131,0.7138,0.7161,0.717,0.7069,0.7069,0.7069,0,0.6681,0.6729,0.6735,0.6771,0.6791,0.6787,0.6826,0.6845,0.6883,0.6898,0.6885,0.6958,0.6977,0.7035,0.7051,0.7065,0.7077,0.706,0.7129,0.7136,0.7142,0.7165,0.7174,0.707,0.707,0.707,0.707,0,0.6753,0.6787,0.6814,0.6851,0.6874,0.6911,0.6924,0.6947,0.6949,0.6961,0.701,0.7034,0.7071,0.7085,0.7087,0.7144,0.7137,0.7127,0.7106,0.7152,0.7174,0.7182,0.7073,0.7072,0.7072,0.7071,0,0,0.6815,0.6855,0.6865,0.6882,0.6915,0.6942,0.698,0.7016,0.7036,0.7063,0.7097,0.7146,0.7137,0.7158,0.7163,0.7191,0.7241,0.7178,0.7179,0.719,0.7307,0.7316,0.7325,0.7238,0.724,0.7241,0.7306,0,0.687,0.6937,0.6944,0.7004,0.7037,0.7035,0.7069,0.7093,0.7106,0.7137,0.7151,0.7186,0.7172,0.7185,0.7212,0.7229,0.7265,0.7224,0.7272,0.7273,0.7265,0.7336,0.7345,0.7404,0.7314,0.7315,0.7316,0,0.6943,0.6972,0.7036,0.7065,0.7079,0.7109,0.7144,0.7173,0.7202,0.7209,0.7234,0.7236,0.7277,0.7254,0.7313,0.7285,0.7305,0.7317,0.7319,0.7325,0.7298,0.7345,0.7423,0.7432,0.7329,0.7328,0.7327,0,0.6984,0.7039,0.7084,0.7099,0.7134,0.7156,0.7172,0.7198,0.722,0.7251,0.7266,0.7301,0.7321,0.7349,0.7362,0.7343,0.7421,0.7398,0.743,0.743,0.7447,0.7446,0.753,0.7458,0.7458,0.7458,0.7457,0,0.7046,0.7085,0.7103,0.7131,0.7176,0.7185,0.7229,0.7244,0.7269,0.7301,0.7302,0.7332,0.7346,0.738,0.739,0.7438,0.7447,0.7455,0.7458,0.7456,0.7455,0.747,0.7466,0.746,0.7459,0.7459,0.7459,0,0.7098,0.7111,0.7161,0.7191,0.7199,0.7231,0.7257,0.7286,0.7298,0.734,0.735,0.7371,0.741,0.7425,0.7474,0.7481,0.7537,0.7535,0.7527,0.7528,0.756,0.7557,0.7657,0.7672,0.7589,0.759,0.759,0,0.7137,0.7167,0.72,0.7222,0.7238,0.7272,0.7295,0.7306,0.733,0.7366,0.739,0.7429,0.7461,0.7525,0.7546,0.7583,0.7584,0.7616,0.7589,0.7587,0.7586,0.7584,0.7588,0.7621,0.7622,0.7623,0.7623,0,0.7205,0.7211,0.7242,0.7277,0.7304,0.7332,0.736,0.7378,0.7393,0.742,0.746,0.7485,0.7535,0.7575,0.7614,0.7632,0.7631,0.7632,0.7641,0.764,0.7635,0.764,0.7542,0.7629,0.7629,0.7628,0.7628,0.7628,0.7253,0.7281,0.7309,0.7345,0.7367,0.7393,0.7421,0.7438,0.7471,0.7512,0.7517,0.7561,0.7591,0.7643,0.7663,0.7699,0.769,0.7704,0.7708,0.7711,0.7714,0.7628,0.7706,0.7706,0.7706,0.7706,0.7705,0,0.7323,0.7341,0.7374,0.7412,0.7442,0.7437,0.7468,0.7493,0.7531,0.7559,0.7591,0.7638,0.7677,0.7701,0.7741,0.7765,0.7766,0.7776,0.7775,0.7779,0.7719,0.7707,0.7774,0.7774,0.7774,0.7774,0.7774,0.7774,0.7362,0.7409,0.7419,0.7477,0.7496,0.7538,0.7556,0.7581,0.7603,0.7656,0.7688,0.7703,0.7731,0.7773,0.7809,0.7816,0.7831,0.7841,0.7847,0.779,0.7783,0.7776,0.7766,0.7844,0.7844,0.7905,0.7905,0.7906]},{"header":{"parameterUnit":"m.s-1","parameterCategory":1,"la1":30.2991,"la2":30.254,"lo1":-89.0895,"lo2":-89.0444,"dy":0.0017,"dx":0.0017,"nx":28,"ny":28,"refTime":"2024-08-04T21:00:00:Z","depth":0,"parameterNumber":3,"parameterNumberName":"V-component_of_WINDS"},"data":[0,0,0,0,0,0,0,0,0,0,0,0,0,0,0,0,0,0,0,0,0,0,0,0,0,0,0,0,0,0,0,0,0,0,0,0,0,0,0,0,0,0,0,0,0,0,0,0,0,0,0,0,0,0,0,0,0,0,-3.8855,-3.8856,0,-3.8929,-3.8929,-3.893,-3.8991,-3.8991,-3.8992,-3.8993,-3.9064,-3.9066,-3.9067,0,0,0,0,0,0,0,0,0,0,0,0,0,-3.8766,-3.8767,-3.8855,-3.8856,-3.8857,-3.8928,-3.8929,-3.893,-3.8991,-3.8991,-3.8992,-3.8993,-3.9064,-3.9065,-3.9067,0,0,0,0,0,0,0,0,0,0,0,0,0,-3.8818,-3.8768,-3.8855,-3.8896,-3.89,-3.8928,-3.8929,-3.8931,-3.899,-3.8991,-3.8992,-3.8993,-3.9063,-3.9065,-3.9067,-3.906,0,0,-3.9073,-3.9074,0,0,0,0,0,0,0,0,-3.8815,-3.8822,-3.8889,-3.8893,-3.8898,-3.8952,-3.8924,-3.8974,-3.899,-3.8956,-3.8993,-3.8994,-3.9026,-3.9031,-3.9042,-3.9063,-3.9066,-3.9073,-3.9075,-3.9075,-3.9076,0,0,0,0,0,0,0,-3.8812,-3.8819,-3.8884,-3.889,-3.8895,-3.891,-3.8919,-3.8934,-3.8984,-3.8959,-3.8964,-3.8972,-3.9028,-3.904,-3.9045,-3.9067,-3.9073,-3.9075,-3.9076,-3.9077,-3.909,-3.9089,0,0,0,0,0,0,-3.8802,-3.8815,-3.8882,-3.8886,-3.8858,-3.8911,-3.892,-3.8933,-3.8984,-3.8993,-3.8971,-3.8974,-3.9037,-3.9042,-3.9047,-3.9044,-3.9075,-3.9077,-3.9078,-3.909,-3.9089,-3.9088,0,0,0,0,0,0,-3.88,-3.8807,-3.8879,-3.8852,-3.8862,-3.8911,-3.8925,-3.8934,-3.8946,-3.8993,-3.9002,-3.8974,-3.9038,-3.9045,-3.9057,-3.9048,-3.9078,-3.908,-3.9091,-3.909,-3.9089,-3.9037,0,0,0,0,0,0,-3.8797,-3.8806,-3.8804,-3.8852,-3.8864,-3.8887,-3.8925,-3.8935,-3.895,-3.8955,-3.8999,-3.9007,-3.9039,-3.9054,-3.9059,-3.9051,-3.9081,-3.9092,-3.9091,-3.9089,-3.904,-3.9034,-3.9029,0,0,0,0,0,-3.8794,-3.8785,-3.8803,-3.8811,-3.8862,-3.8887,-3.8893,-3.8932,-3.8949,-3.8947,-3.8978,-3.9005,-3.9048,-3.9055,-3.9061,-3.9053,-3.9093,-3.9091,-3.9089,-3.9042,-3.9035,-3.9029,0,0,0,0,0,0,-3.8732,-3.8791,-3.8813,-3.8819,-3.8848,-3.8897,-3.8895,-3.8923,-3.8946,-3.8949,-3.8995,-3.9004,-3.9013,-3.9034,-3.9041,-3.9051,-3.9074,-3.9074,-3.9036,-3.903,-3.9025,-3.9019,-3.9083,0,0,0,0,0,-3.872,-3.8736,-3.8786,-3.8787,-3.8801,-3.8846,-3.8858,-3.8885,-3.8916,-3.8928,-3.896,-3.8988,-3.9008,-3.902,-3.9041,-3.9043,-3.9055,-3.9041,-3.9036,-3.9031,-3.903,-3.9036,-3.9031,-3.9082,-3.9082,-3.9082,0,0,-3.8693,-3.8728,-3.8734,-3.8776,-3.8801,-3.8817,-3.8855,-3.8869,-3.8882,-3.893,-3.8945,-3.8969,-3.9004,-3.9012,-3.9017,-3.903,-3.9019,-3.9029,-3.9025,-3.9026,-3.9034,-3.9029,-3.9024,-3.9081,-3.9081,-3.9081,0,0,-3.8653,-3.868,-3.8685,-3.8711,-3.875,-3.8781,-3.8782,-3.8828,-3.8847,-3.8863,-3.8901,-3.8916,-3.8949,-3.8973,-3.899,-3.8963,-3.899,-3.8969,-3.8941,-3.8946,-3.8942,-3.8939,-3.8931,-3.8928,-3.8967,-3.8967,-3.8967,0,-3.8615,-3.8641,-3.8684,-3.8697,-3.8715,-3.8762,-3.8768,-3.8791,-3.8833,-3.8845,-3.8859,-3.8905,-3.8931,-3.8947,-3.8941,-3.8952,-3.8956,-3.8964,-3.8939,-3.8937,-3.8934,-3.8927,-3.8924,-3.8965,-3.8965,-3.8965,-3.8965,0,-3.8593,-3.8611,-3.861,-3.8653,-3.8671,-3.868,-3.8725,-3.8738,-3.8765,-3.8794,-3.8812,-3.8846,-3.8876,-3.8882,-3.8906,-3.8902,-3.891,-3.8931,-3.8956,-3.8926,-3.892,-3.8918,-3.8961,-3.8962,-3.8962,-3.8963,0,0,-3.8513,-3.8584,-3.8583,-3.8605,-3.8653,-3.8667,-3.868,-3.8711,-3.8722,-3.8751,-3.8763,-3.8792,-3.8814,-3.8833,-3.8861,-3.8866,-3.8846,-3.8887,-3.8889,-3.8879,-3.8845,-3.883,-3.8826,-3.8864,-3.8864,-3.8863,-3.8843,0,-3.8482,-3.8509,-3.855,-3.8562,-3.8581,-3.8627,-3.8639,-3.8669,-3.8698,-3.8718,-3.8749,-3.8769,-3.8795,-3.8807,-3.8814,-3.8846,-3.8839,-3.8849,-3.8876,-3.8877,-3.8867,-3.8823,-3.8805,-3.8784,-3.8841,-3.8841,-3.884,0,-3.8448,-3.8478,-3.8493,-3.8544,-3.8553,-3.8562,-3.8596,-3.8614,-3.8651,-3.8672,-3.8695,-3.8727,-3.8744,-3.8766,-3.8791,-3.8796,-3.881,-3.8828,-3.8828,-3.8833,-3.8857,-3.8827,-3.8778,-3.8775,-3.8837,-3.8837,-3.8838,0,-3.8391,-3.8434,-3.845,-3.8467,-3.8525,-3.8532,-3.8556,-3.8594,-3.8612,-3.8641,-3.8654,-3.8684,-3.87,-3.8723,-3.8763,-3.8776,-3.8784,-3.8809,-3.8802,-3.8801,-3.8801,-3.8801,-3.8755,-3.8809,-3.8809,-3.8809,-3.8809,0,-3.8352,-3.836,-3.8426,-3.8435,-3.8446,-3.8494,-3.8503,-3.8532,-3.8566,-3.8583,-3.8624,-3.8639,-3.8691,-3.8711,-3.8743,-3.8759,-3.8766,-3.8784,-3.8792,-3.878,-3.8778,-3.879,-3.8793,-3.8808,-3.8809,-3.8809,-3.8809,0,-3.829,-3.8334,-3.8354,-3.841,-3.8424,-3.843,-3.8477,-3.8489,-3.8521,-3.8541,-3.8549,-3.8599,-3.8626,-3.8669,-3.8707,-3.8729,-3.8741,-3.8754,-3.8728,-3.8734,-3.8725,-3.8725,-3.8686,-3.8684,-3.8737,-3.8737,-3.8736,0,-3.8262,-3.827,-3.8327,-3.8342,-3.8366,-3.8389,-3.8408,-3.8456,-3.8474,-3.852,-3.8526,-3.8557,-3.8584,-3.8625,-3.8665,-3.8695,-3.871,-3.8695,-3.8715,-3.8704,-3.8712,-3.8711,-3.8713,-3.8689,-3.8689,-3.8688,-3.8687,0,-3.8209,-3.8232,-3.8258,-3.8294,-3.8316,-3.8345,-3.8377,-3.8386,-3.8442,-3.846,-3.849,-3.8511,-3.8553,-3.8583,-3.862,-3.8645,-3.8676,-3.8681,-3.8681,-3.867,-3.8655,-3.8665,-3.8716,-3.8681,-3.8682,-3.8682,-3.8683,-3.8683,-3.8164,-3.8174,-3.8218,-3.8247,-3.8276,-3.8306,-3.8321,-3.8356,-3.8382,-3.8421,-3.8448,-3.8476,-3.8516,-3.8569,-3.8593,-3.8616,-3.8629,-3.8629,-3.8629,-3.8629,-3.8625,-3.8652,-3.8623,-3.8623,-3.8623,-3.8624,-3.8624,0,-3.8115,-3.8146,-3.8172,-3.8217,-3.824,-3.8269,-3.8307,-3.8324,-3.8349,-3.8384,-3.8412,-3.8447,-3.8478,-3.8521,-3.8556,-3.8566,-3.8581,-3.8573,-3.8573,-3.8579,-3.8611,-3.8608,-3.8561,-3.8561,-3.8561,-3.8561,-3.8561,-3.8561,-3.8092,-3.8112,-3.814,-3.8176,-3.8207,-3.8236,-3.8256,-3.8283,-3.8312,-3.835,-3.8377,-3.8406,-3.8446,-3.8484,-3.8514,-3.8526,-3.8537,-3.8525,-3.8542,-3.8571,-3.8576,-3.8582,-3.858,-3.8527,-3.8527,-3.8509,-3.8509,-3.8508]}]]